Lisbon, Maryland
Current Conditions -  °F | °C
As of 12:15 AM on Wednesday 26 Nov 2014 (Local Time) from KGAI Reporting Station
Few Clouds Few Clouds  
Wind Chill: 43°   Ceiling: Unl
Heat Index: 43°   Visibility: 10mi
Dew Point: 34°   Wind: 0mph
Humidity: 70%   Direction: NA
Pressure: 30.19"   Gusts: NA
Location:  39.34°N, 77.07°W
Report Text: KGAI 260515Z 00000KT 10SM FEW120 06/01 A3019 RMK AO1
Loading
Personal Weather Stations






























Interactive Weather Map New forecast layout! Learn more

10-Day Weather Forecast

Advertisements
Track Severe Weather on mobile